CZ-2C R/B, 42948

Orbit data source: Space-Track

CZ-2C R/B, 42948 is space debris in LEO originally from a launch on Fri, 29 Sep 2017 UTC launched from the Xichang Space Center, China (XSC). Debris objects in space refer to the collection of defunct objects orbiting the Earth. Examples of debris include non-operational satellites, rocket bodies, and fragments generated from explosions, collisions, or faulty payload assembly.

Loading next visibility...
Identifier
42948, 2017-058D
Orbit
LEO
Last TLE update
21 hours ago
Origin
Manufacturer
CALT
Mission
Spacecraft
Bus & Motor
CZ-2 STAGE 2, Unknown motor
Mass
~3,800 kg wet, ~3,800 kg dry
Launch date (UTC)
2017-09-29 (8 years ago)
Launch vehicle
Unknown
Launch site
Xichang Space Center, China (XSC)
Object type
Payload
Rocket body
Debris
Shape & HBR
Cyl, 7.49 m
Radar Cross Section
23.715 m², Large (>1 m²)

Expand to show TLE details & history

TLE from 21 hours ago
0 CZ-2C R/B
1 42948U 17058D   25182.23899697  .00001088  00000-0  12348-3 0  9997
2 42948  34.9260 274.6655 0060000 149.1283 211.2966 14.85236202420008
Epoch: 2025-07-01T05:44Z
TLE epoch observation values (Epoch: 2025-07-01T05:44:09.338Z)
Latitude
-0.00003°
Longitude
-90.91076°
Altitude
647.664 km
Speed
7.517 km/s
True Right ascension
18h 18m 39s
True Declination
0° 00' 00"
Sunlit
Object was in full shadow at epoch
Visualization orbit readout
Latitude
-31.44498°
Longitude
-156.59537°
Altitude
651.811 km
Speed
7.516 km/s
Apparent Right ascension
13h 12m 30s
Apparent Declination
-81° 40' 53"
Sunlit
Object is in full shadow
Visualization observer readout
Local Sidereal Time
14:05:52
Azimuth
182.251° SSW
Elevation
-31.799°
Doppler factor
1
Orbital elements
Apogee altitude
658.018 km
Perigee altitude
574.087 km
Semi-major axis
6,994.19 km
Eccentricity
0.006
Inclination
34.926°
RAAN
274.6655°
Arg. of periapsis
149.1283°
True anomaly
Unknown
Mean anomaly
211.2966°
Eccentric anomaly
Unknown
Mean motion
3.71054 °/min
Orbital period
97.02 mins
BSTAR
0.00012348
Loading maneuver chart data...
Loading SW <> Apogee altitude chart data...
Loading historical data...
Loading historical data...
Loading historical data...
Loading historical data...
Loading historical data...
Loading historical data...
Loading historical data...
Other satellites on launch #58 in the year 2017 (2017-09-29 UTC)

CZ-2C R/B Visibility forecast

Observer location: undefined°, undefined°

Span
Click to sort rows by Start time (UTC) header in descending order
Start Az.
Max El. time (UTC)
Max El. Az.
Max El.
End time (UTC)
End Az.
6 mins2025-07-02 09:22:47.790Z200.318° SSW2025-07-02 09:25:47.790Z156.755° SSE18.733°2025-07-02 09:28:47.790Z112.766° SE
7 mins2025-07-02 11:04:47.790Z232.178° WSW2025-07-02 11:07:47.790Z170.068° S32.188°2025-07-02 11:11:47.790Z103.209° ESE
7 mins2025-07-02 12:46:47.790Z250.461° W2025-07-02 12:49:47.790Z190.607° SSW32.938°2025-07-02 12:53:47.790Z118.222° SE
5 mins2025-07-02 14:29:47.790Z237.799° WSW2025-07-02 14:31:47.790Z202.913° SW19.852°2025-07-02 14:34:47.790Z155.429° SSE
|